Theta_e
303 311 312 312 308 308 311 311 310 309 308 307 307 313 314 314 315 314 309 309 310 310 309 308 309 321 332 337 341 343 345 346 345 346 347 348 340 340 342 343 341 339 337 335 341 342 341 336 333
305 311 312 307 307 306 305 308 309 308 308 305 310 312 313 313 312 308 308 308 308 308 307 307 306 313 315 327 336 339 341 343 345 346 346 347 346 340 340 342 341 337 335 335 340 341 340 334 328
304 306 307 306 305 306 304 305 306 307 306 308 309 310 311 311 308 307 307 306 305 304 304 305 304 307 311 312 322 331 337 339 342 345 345 344 345 344 342 340 339 336 335 341 342 342 340 333 327
305 305 303 306 308 306 305 305 305 305 306 306 307 308 307 306 306 305 303 303 303 302 302 303 303 304 306 309 310 308 322 332 339 343 344 343 343 344 344 341 339 336 338 342 342 339 340 333 328
304 303 306 305 306 305 304 304 305 306 306 305 307 307 307 304 302 302 300 300 300 300 301 302 301 301 302 303 305 304 305 309 324 337 341 344 343 343 343 343 340 337 336 339 342 340 339 333 331
300 301 304 306 306 306 305 305 306 305 304 304 304 303 304 303 302 300 299 299 299 299 299 300 300 300 300 300 301 301 302 304 306 316 331 338 343 343 342 342 340 339 336 339 340 341 339 336 329
301 301 304 304 306 306 306 304 304 303 303 304 302 305 303 300 300 300 298 298 298 298 298 298 298 298 298 299 299 299 301 301 303 306 311 328 338 343 342 341 341 340 338 337 341 339 338 338 330
297 300 303 302 303 303 303 302 301 299 301 300 302 302 303 298 298 297 297 297 297 297 297 297 297 298 298 298 298 298 299 300 300 301 304 312 329 340 342 341 341 339 339 336 341 340 338 338 334
296 297 301 300 301 301 299 298 298 295 296 295 299 297 298 298 297 296 296 296 296 296 296 297 297 297 297 298 298 298 298 298 298 299 303 304 318 333 341 340 340 340 338 338 338 340 338 339 336
294 295 297 299 299 299 298 295 294 295 294 295 294 295 295 296 296 295 295 294 296 296 296 296 297 297 297 297 297 297 298 298 298 301 302 302 306 323 334 337 340 339 338 338 337 339 339 339 338
296 297 297 298 298 298 296 294 294 293 293 294 292 293 294 294 294 294 295 295 295 296 296 296 296 296 296 296 297 297 298 298 298 298 299 302 302 305 331 337 339 339 339 337 338 337 338 338 338
294 295 295 296 296 295 294 294 294 292 293 293 292 292 293 293 293 294 294 295 295 296 296 296 296 297 296 296 297 297 297 298 298 298 298 302 308 305 311 332 339 339 339 338 338 338 337 338 339
293 294 294 294 293 293 294 294 293 293 292 291 292 294 293 293 293 294 295 295 295 296 296 296 296 296 296 297 297 297 297 298 298 298 298 298 299 301 305 313 329 338 338 338 337 337 337 337 338
293 293 293 293 294 294 294 294 294 293 293 293 292 291 292 292 292 293 294 295 295 296 296 296 296 296 297 297 297 297 297 297 297 297 298 299 300 303 306 308 312 329 337 338 337 336 337 337 337
293 292 292 292 293 293 294 293 293 293 294 293 290 290 291 291 293 292 294 295 296 296 295 296 297 297 297 297 297 298 297 297 298 298 298 299 301 304 304 313 311 316 336 338 337 336 336 336 336
292 291 292 293 294 294 294 294 294 292 290 290 290 288 289 291 292 294 295 295 294 295 295 295 295 295 295 295 296 296 297 298 297 297 297 297 298 298 306 310 312 311 318 337 336 336 336 336 336
291 294 294 294 295 294 293 293 293 293 293 293 292 291 291 291 292 293 295 294 294 294 293 293 293 293 294 294 294 295 296 296 297 298 297 297 297 299 300 305 311 322 321 331 336 336 336 335 336
295 293 294 296 295 294 294 293 293 293 293 293 293 292 290 291 292 293 293 293 293 293 292 292 292 292 292 293 293 293 293 294 297 297 297 297 298 300 300 303 308 309 314 320 333 335 335 336 336
292 294 294 293 294 294 294 293 293 293 292 291 292 292 291 290 292 292 292 292 292 292 292 291 291 291 291 291 291 291 292 293 295 296 298 298 297 298 299 300 298 305 314 322 323 331 333 335 331
293 294 294 294 292 292 291 291 292 291 291 291 290 291 290 290 289 290 290 290 290 290 290 290 289 289 289 289 289 290 290 291 293 295 296 297 299 299 298 298 298 299 310 321 321 329 329 328 325
294 294 295 292 291 291 290 290 290 290 291 291 291 290 289 289 288 288 288 289 289 289 289 288 288 288 288 288 288 288 289 289 290 292 295 296 297 297 297 300 302 304 306 310 321 324 327 325 322
294 293 293 292 291 290 290 291 290 290 290 291 291 290 289 289 288 288 288 288 287 287 287 287 287 287 287 287 288 288 289 289 290 291 292 296 296 296 297 296 298 300 301 317 321 323 326 323 320
291 292 292 291 290 288 290 291 289 291 293 292 290 290 289 288 288 287 286 287 286 286 285 285 285 285 285 286 286 287 288 288 289 290 291 293 294 296 297 297 298 298 298 310 321 325 325 323 318
292 290 290 286 281 281 288 291 289 291 292 291 289 288 288 287 287 286 286 285 284 284 283 283 283 283 284 285 285 285 286 286 287 289 290 292 295 296 296 298 298 298 299 309 320 323 321 321 319
281 283 286 280 278 280 288 287 288 292 291 291 289 288 288 287 286 285 284 283 283 282 282 281 282 282 282 282 283 283 284 285 286 287 288 290 293 294 296 296 299 299 299 301 318 321 321 320 320
285 285 286 289 287 288 288 281 291 291 291 290 288 287 287 285 285 284 283 282 281 280 280 280 280 280 280 280 280 281 282 283 284 285 286 288 291 294 295 297 297 298 302 309 317 320 321 320 322
283 281 286 289 274 280 285 288 289 291 289 288 287 288 285 284 283 282 281 281 280 279 279 279 278 278 279 279 279 279 280 281 282 283 285 287 288 291 294 295 297 298 298 304 316 318 318 319 317
287 290 288 281 288 279 282 286 286 286 285 288 287 286 284 282 282 281 280 280 279 278 278 277 277 277 277 277 277 278 278 279 281 283 284 286 287 290 292 294 296 298 297 302 315 316 316 316 314
282 280 287 286 285 286 280 283 281 279 279 282 284 287 283 280 279 280 279 279 278 277 276 276 276 276 276 276 276 276 277 278 280 281 283 285 287 289 291 294 295 297 299 305 313 314 312 313 312
283 280 283 289 283 277 278 285 278 276 283 280 285 287 284 281 280 279 277 276 276 276 276 276 275 275 275 275 275 276 277 278 279 280 282 283 286 289 291 293 296 296 297 306 311 312 311 310 309
Wind_Speed
9 6 6 3 2 1 7 7 6 9 6 6 8 5 5 3 2 4 5 12 10 11 11 19 21 21 18 13 9 4 6 15 17 18 18 18 22 25 24 24 25 26 26 26 24 20 17 19 19
12 8 1 1 3 4 8 13 16 11 10 8 6 5 3 4 6 8 5 10 13 13 13 16 19 20 20 17 9 6 3 7 16 19 20 20 21 25 27 27 26 27 28 27 26 22 19 18 18
15 10 2 3 5 15 6 6 6 7 10 5 3 1 3 3 5 6 10 10 12 16 16 16 18 18 19 18 15 9 6 6 7 16 21 23 23 24 27 30 29 28 28 27 27 24 21 20 20
7 5 3 2 17 9 11 13 12 9 16 10 4 6 5 8 3 10 13 12 13 14 14 14 15 17 18 17 16 15 12 9 7 12 18 24 26 27 28 30 32 31 30 28 27 24 23 23 23
5 2 2 5 18 10 14 10 14 19 16 16 5 11 8 8 22 18 15 14 15 14 15 13 14 14 15 16 16 17 14 14 11 10 13 23 28 29 31 32 34 34 33 30 28 26 25 25 26
3 1 2 8 17 13 8 9 15 12 7 6 6 7 2 18 20 13 11 12 11 13 14 14 13 12 14 17 17 18 18 15 15 14 13 15 27 31 33 34 35 36 35 33 32 29 28 27 28
3 2 5 8 14 19 17 9 15 12 5 1 6 3 6 6 16 10 10 10 11 11 11 13 16 14 14 14 19 18 17 18 16 15 16 16 18 31 35 37 37 37 38 37 34 32 31 29 29
2 3 4 4 15 24 9 6 5 6 4 5 2 2 3 10 18 16 14 14 12 13 14 16 14 16 16 15 14 15 16 19 19 17 16 19 18 25 34 37 39 39 39 40 37 35 33 32 31
1 1 6 8 11 19 4 6 5 7 4 4 3 2 5 26 24 24 22 22 18 15 16 16 16 16 16 15 14 16 18 19 20 18 15 18 19 20 29 38 41 40 41 41 40 38 36 34 33
4 4 9 7 8 11 16 2 7 7 16 19 11 4 12 27 33 22 17 11 20 21 20 18 19 19 20 21 20 16 17 19 18 17 16 18 20 17 23 31 40 42 42 42 43 41 39 36 35
6 13 17 13 16 16 18 16 4 6 17 16 10 9 10 9 17 16 22 27 22 26 25 21 22 23 22 23 21 19 15 17 20 20 19 18 22 22 18 23 36 42 43 44 44 43 41 40 38
9 12 16 18 10 11 18 20 19 13 23 10 14 8 9 14 13 14 17 22 31 30 26 23 21 23 24 24 24 22 20 17 22 21 20 17 17 23 21 15 33 38 44 47 44 43 43 42 42
14 20 13 13 12 15 16 19 21 23 14 10 14 16 11 12 13 24 27 28 30 26 22 21 21 26 25 24 23 22 21 20 21 23 23 22 22 23 26 26 16 33 39 45 44 44 43 44 44
5 14 18 14 19 17 19 28 19 26 23 18 14 11 10 11 11 19 17 17 16 17 21 23 24 21 19 21 21 22 24 24 23 26 23 20 20 21 25 28 30 20 35 42 43 43 44 41 42
7 22 21 17 16 18 23 28 23 22 25 20 13 10 10 9 12 11 21 21 24 26 19 7 1 3 6 10 15 21 22 22 19 20 21 19 21 22 25 25 28 29 24 36 38 44 43 39 40
8 6 10 8 8 10 16 23 17 9 9 10 12 9 8 10 11 21 21 22 6 8 3 3 7 11 15 18 21 24 23 25 28 29 29 29 25 27 22 24 28 29 30 33 34 38 39 38 38
6 14 18 20 15 18 18 26 23 20 17 16 13 12 11 11 12 19 26 12 8 6 2 6 11 14 17 20 22 25 27 28 27 28 29 30 29 27 28 24 25 22 22 20 32 34 40 39 38
21 24 23 22 13 20 22 25 20 17 14 18 17 14 12 12 13 4 13 9 6 6 6 9 13 17 19 21 25 28 32 31 28 29 30 31 28 25 26 29 25 24 26 26 20 28 38 40 42
18 17 20 21 20 18 19 21 23 19 17 15 16 16 13 5 3 12 12 10 10 11 11 11 13 15 18 21 23 25 25 26 28 28 27 30 29 31 31 31 32 30 24 26 28 33 21 36 36
17 21 21 16 17 17 18 20 22 20 16 13 8 3 6 5 6 7 16 18 17 17 19 19 18 18 19 21 23 23 23 25 25 26 28 28 25 26 32 31 33 33 25 27 30 33 29 12 36
17 17 15 17 18 18 16 12 18 25 17 16 13 7 6 8 8 9 9 15 19 18 19 21 23 23 23 24 26 26 25 28 28 28 27 30 31 33 33 28 28 28 31 30 26 25 28 28 26
15 13 13 17 15 12 6 13 17 16 12 10 11 8 7 10 9 8 9 10 14 18 22 24 26 25 22 21 22 22 22 22 25 25 25 25 31 35 35 35 33 34 31 27 28 27 29 30 27
9 5 12 11 16 7 19 3 7 12 6 4 9 10 9 7 7 7 7 11 18 21 24 25 26 24 23 23 23 23 25 26 26 27 28 26 32 31 33 34 33 36 36 28 28 27 34 40 30
8 4 14 5 2 2 6 6 4 7 3 5 5 7 7 7 5 5 10 17 19 22 23 24 26 27 25 23 23 24 28 29 26 25 25 25 26 29 35 33 36 37 36 29 32 31 38 38 38
8 5 4 5 4 5 8 8 3 5 6 3 2 9 8 7 7 10 12 12 19 23 24 25 25 28 28 27 28 29 30 29 29 29 28 27 25 28 28 34 35 36 38 34 33 36 33 37 34
5 5 2 5 5 12 12 3 3 2 4 2 6 8 7 6 9 10 11 13 18 21 24 25 26 29 29 29 31 32 32 31 32 31 32 31 29 27 29 31 38 36 33 33 35 35 36 35 34
7 2 5 3 0 3 3 6 5 3 3 7 8 9 8 9 9 11 11 15 21 24 25 26 28 30 30 31 32 33 32 33 34 33 32 31 32 31 30 34 34 39 41 32 35 35 34 38 33
5 5 5 4 4 5 5 5 3 13 7 16 14 12 11 8 12 14 14 19 25 28 30 30 30 31 32 32 33 33 33 35 35 32 34 33 34 33 33 35 35 36 41 32 35 33 36 36 33
7 3 3 1 3 2 4 6 7 6 5 12 12 14 8 9 11 14 14 22 25 26 28 29 30 31 32 32 32 34 33 33 33 34 35 34 35 33 33 35 38 34 33 34 35 34 35 36 36
5 4 4 2 6 2 3 9 3 4 8 4 14 14 11 8 12 13 13 18 22 24 28 30 31 31 32 33 35 35 32 31 33 38 38 34 35 34 35 38 38 37 32 27 38 31 37 37 36
Wind_Direction
329 331 321 342 73 80 239 252 241 283 296 290 289 237 204 161 130 192 77 60 66 50 27 31 34 46 46 45 37 16 248 241 226 216 213 207 206 205 202 198 191 187 183 177 174 174 182 183 182
341 344 275 87 144 216 255 215 243 253 251 333 318 270 199 191 117 133 96 52 62 49 27 21 23 35 43 44 41 16 315 269 240 231 217 210 209 208 206 203 198 191 186 177 178 177 178 184 182
324 294 76 166 204 233 252 169 229 272 292 287 280 317 279 44 70 102 95 78 64 47 35 23 14 24 29 36 40 23 351 301 266 241 232 223 216 212 205 202 200 193 188 183 184 179 180 181 179
314 5 344 219 249 268 259 286 295 294 300 279 204 281 70 10 63 93 82 66 52 36 28 25 13 15 16 21 26 28 6 357 302 265 240 236 226 214 212 204 200 196 192 191 191 187 187 182 179
313 43 241 244 254 263 276 288 292 280 287 287 254 249 117 63 87 67 52 45 36 23 18 19 16 8 2 2 6 4 1 355 338 299 280 237 233 220 214 212 205 201 197 197 196 194 194 186 181
335 119 243 246 261 265 261 263 277 285 275 300 4 334 54 111 71 62 39 24 23 19 7 14 17 13 356 342 340 349 347 339 340 327 305 280 236 230 219 216 213 206 202 199 200 198 199 192 188
139 21 247 281 281 289 280 316 299 309 314 22 292 325 168 101 6 17 69 52 24 14 5 352 357 358 353 345 331 337 335 331 328 321 324 300 270 236 228 218 216 212 207 203 204 203 203 197 193
141 143 245 241 271 282 282 297 354 39 281 297 100 111 323 300 350 8 3 8 11 0 346 346 340 342 346 342 336 326 321 315 317 317 313 314 293 254 237 228 220 217 212 207 205 205 204 199 197
160 275 241 243 252 272 6 8 326 301 277 295 264 3 266 320 334 340 340 335 336 337 334 334 334 333 329 331 331 320 312 311 311 312 311 309 305 272 247 236 227 220 216 213 208 208 205 202 199
155 209 233 219 264 290 307 343 299 314 304 288 299 313 343 328 324 326 326 322 322 325 323 321 318 317 311 311 316 319 315 312 311 307 302 305 306 294 265 248 229 226 219 215 214 211 209 202 200
223 245 262 263 293 303 306 299 249 268 269 283 286 304 315 308 307 308 307 305 302 305 302 303 307 305 303 305 306 308 309 305 306 304 299 295 297 299 288 258 237 225 222 219 216 212 210 205 200
297 276 282 293 296 302 288 294 283 249 266 275 286 264 288 290 285 280 278 281 287 287 290 287 298 294 295 295 296 296 299 296 296 301 299 297 296 294 286 283 239 231 220 217 215 209 206 205 205
268 278 284 306 312 294 296 288 278 280 292 263 268 277 272 262 263 269 269 273 273 272 279 279 284 283 282 284 285 285 288 290 290 293 294 294 286 283 290 277 279 232 221 219 213 212 206 203 204
291 302 291 298 290 290 285 277 282 285 276 270 259 253 268 267 263 271 273 258 262 270 279 282 279 270 271 274 278 281 282 284 284 287 291 291 289 278 278 282 275 272 230 224 215 211 205 198 200
290 303 297 280 273 273 277 278 276 278 276 268 241 233 255 242 262 251 268 269 278 274 278 278 268 287 305 312 308 296 283 281 279 279 286 288 286 282 275 274 282 269 238 226 218 211 212 199 197
301 272 284 292 300 315 309 292 293 297 304 289 294 278 272 273 261 263 274 279 241 156 147 287 304 303 301 303 300 296 301 290 282 280 278 275 278 275 287 273 270 275 271 222 209 199 201 201 197
234 283 295 311 321 298 292 292 299 293 288 288 280 270 277 266 272 259 263 231 153 121 45 328 313 307 303 304 303 298 296 288 286 277 274 277 273 268 270 276 276 277 278 265 212 202 198 197 200
314 308 305 301 312 311 297 292 295 301 295 287 282 279 269 263 271 33 97 83 52 12 348 325 311 308 303 296 294 293 291 288 284 277 272 273 272 270 265 263 272 275 270 261 220 222 204 200 200
312 311 307 307 307 306 301 293 294 288 281 282 282 286 287 111 87 81 73 50 18 357 343 328 313 302 297 296 295 292 285 286 284 277 277 269 266 260 260 263 268 268 269 263 254 228 234 193 189
302 298 301 301 308 301 293 294 290 280 279 276 285 119 121 106 66 34 21 12 0 339 326 319 311 303 296 294 292 287 288 287 285 286 275 269 267 266 261 260 259 263 260 252 241 224 217 222 188
304 299 303 303 313 302 296 292 297 300 291 276 260 153 87 70 42 16 4 352 339 330 321 313 308 301 293 288 286 284 280 279 278 273 270 265 261 261 262 260 259 265 265 260 260 248 216 217 250
298 304 303 306 323 305 317 300 301 298 314 53 84 77 54 37 23 358 340 325 330 327 318 311 307 302 294 286 282 278 274 271 269 268 267 269 260 257 256 257 255 260 263 255 246 246 208 189 202
274 307 290 296 291 323 305 228 284 309 266 94 58 46 27 10 348 316 322 331 328 321 317 311 307 301 296 289 280 275 271 268 269 267 268 268 262 262 258 253 253 253 260 254 238 223 195 187 177
305 334 305 314 92 355 261 348 264 292 345 51 15 18 341 299 315 326 331 325 318 315 311 307 303 296 293 289 282 273 271 271 270 269 263 261 256 256 254 256 249 251 258 254 229 210 197 185 176
23 1 309 350 357 237 317 334 296 25 53 64 19 330 321 339 332 335 326 323 318 313 308 304 299 296 292 286 281 275 271 270 266 263 259 256 261 249 258 250 251 247 252 254 227 211 201 183 182
269 175 204 295 304 299 312 255 292 225 104 49 342 300 304 316 339 317 316 312 310 308 306 303 298 291 288 283 278 274 269 264 261 258 253 252 250 254 247 257 250 247 249 248 225 214 204 197 189
296 356 231 266 63 47 257 297 287 143 342 314 311 331 311 323 315 314 311 309 314 313 305 299 292 287 283 279 276 273 266 259 257 255 253 251 248 248 249 251 258 247 247 255 220 206 200 194 192
336 290 317 344 306 306 294 286 252 312 310 330 325 325 315 312 328 326 319 320 315 307 303 300 294 287 285 281 275 270 265 260 256 253 250 246 245 242 243 246 253 249 247 245 218 199 194 190 189
324 329 295 213 169 287 318 282 238 245 264 306 308 318 316 313 313 320 313 310 303 301 299 295 294 289 286 281 277 271 264 258 254 250 246 243 241 238 237 240 243 249 241 231 210 202 185 184 178
212 254 192 319 323 231 194 283 258 230 303 278 311 319 329 323 318 317 310 307 308 306 306 304 300 293 288 285 280 273 266 259 250 245 243 237 237 234 233 236 239 237 242 235 209 191 183 180 178